Printer-friendly version

IAU Minor Planet Center

Minor Planet Center

MPEC 2006-T83 : 2006 TC8

The following Minor Planet Electronic Circular may be linked-to from your own Web pages, but must not otherwise be redistributed electronically.


Read MPEC 2006-T82 Read MPEC 2006-T84


M.P.E.C. 2006-T83                                Issued 2006 Oct. 13, 21:20 UT

     The Minor Planet Electronic Circulars contain information on unusual
         minor planets and routine data on comets.  They are published
   on behalf of Commission 20 of the International Astronomical Union by the
          Minor Planet Center, Smithsonian Astrophysical Observatory,
                          Cambridge, MA 02138, U.S.A.

             Prepared using the Tamkin Foundation Computer Network

                              MPC@CFA.HARVARD.EDU
          URL http://cfa-www.harvard.edu/iau/mpc.html  ISSN 1523-6714

                                   2006 TC8

Observations:
     K06T08C* C2006 10 12.40836 02 23 33.32 +18 35 05.1          18.4 R ET083644
     K06T08C  C2006 10 12.43022 02 23 25.50 +18 32 15.0          18.6 R ET083644
     K06T08C  C2006 10 12.45106 02 23 18.07 +18 29 33.4          18.3 R ET083644
     K06T08C  C2006 10 13.85352 02 15 43.80 +15 36 18.1          18.2 R ET083118
     K06T08C  C2006 10 13.85508 02 15 43.35 +15 36 06.5          18.2 R ET083118
     K06T08C  C2006 10 13.85525 02 15 43.42 +15 36 03.6                 ET083J95
     K06T08C  C2006 10 13.85885 02 15 42.32 +15 35 37.7                 ET083J95
     K06T08C  C2006 10 13.85896 02 15 42.12 +15 35 39.1          17.8 R ET083118
     K06T08C  C2006 10 13.86051 02 15 41.68 +15 35 29.6          18.0 R ET083118
     K06T08C  C2006 10 13.86230 02 15 41.27 +15 35 14.2          18.6 R ET083J95
     K06T08C  C2006 10 13.86516 02 15 40.11 +15 34 55.9          18.1 R ET083118

Observer details:
118 Modra.  Observers S. Gajdos, J. Vilagi.  0.6-m f/5.5 reflector + CCD.
644 Palomar Mountain/NEAT.  Observers M. Brown, R. Bambery, K. Lawrence,
    M. Hicks, E. Helin, R. Thicksten.  1.2-m Schmidt + CCD.
J95 Great Shefford.  Observer P. Birtwhistle.  0.40-m f/6.0 Schmidt-Cassegrain
    + CCD.

Orbital elements:
2006 TC8                                                 Earth MOID = 0.1362 AU
Epoch 2006 Oct. 12.0 TT = JDT 2454020.5                 MPC
M  13.42008              (2000.0)            P               Q
n   0.21560307     Peri.   68.39290     -0.01625149     +0.97054844
a   2.7544364      Node   204.72397     -0.98793273     +0.02144503
e   0.8175482      Incl.   35.07706     +0.15402859     +0.23994964
P   4.57           H   19.9           G   0.15
From 11 observations 2006 Oct. 12-13.

Ephemeris:
2006 TC8                 a,e,i = 2.75, 0.82, 35                  q = 0.5026
Date    TT    R. A. (2000) Decl.     Delta      r     Elong.  Phase     V
2006 10 12    02 25.97   +19 28.8    0.281    1.262   157.5    17.6    18.6
2006 10 22    01 45.25   +03 27.4    0.405    1.398   172.6     5.3    19.1
2006 11 01    01 26.25   -04 12.5    0.566    1.529   156.6    14.9    20.4
2006 11 11    01 17.54   -07 48.7    0.749    1.655   143.7    20.7    21.4
2006 11 21    01 14.74   -09 22.6    0.948    1.775   132.9    24.0    22.2
2006 12 01    01 15.80   -09 49.2    1.160    1.891   123.4    25.8    22.8

Timothy B. Spahr             (C) Copyright 2006 MPC           M.P.E.C. 2006-T83

Read MPEC 2006-T82 Read MPEC 2006-T84


Our Web policy. Index to the CBAT/MPC/ICQ pages.


Valid HTML 4.01!